Year,Month,Day,Hour,Minute,Value (Times are PST for temperature in C)
2008,11,25,00,00,3.10
2008,11,25,00,01,3.10
2008,11,25,00,02,2.90
2008,11,25,00,03,2.90
2008,11,25,00,04,2.90
2008,11,25,00,05,2.90
2008,11,25,00,06,2.90
2008,11,25,00,07,2.90
2008,11,25,00,08,2.90
2008,11,25,00,09,2.90
2008,11,25,00,10,2.90
2008,11,25,00,11,2.90
2008,11,25,00,12,2.90
2008,11,25,00,13,2.90
2008,11,25,00,14,2.80
2008,11,25,00,15,2.80
2008,11,25,00,16,2.80
2008,11,25,00,17,2.80
2008,11,25,00,18,2.80
2008,11,25,00,19,2.80
2008,11,25,00,20,2.80
2008,11,25,00,21,2.80
2008,11,25,00,22,2.80
2008,11,25,00,23,2.80
2008,11,25,00,24,2.80
2008,11,25,00,25,2.90
2008,11,25,00,26,2.90
2008,11,25,00,27,2.90
2008,11,25,00,28,2.90
2008,11,25,00,29,2.90
2008,11,25,00,30,2.90
2008,11,25,00,31,2.90
2008,11,25,00,32,2.90
2008,11,25,00,33,2.90
2008,11,25,00,34,2.90
2008,11,25,00,35,2.90
2008,11,25,00,36,2.90
2008,11,25,00,37,2.90
2008,11,25,00,38,2.90
2008,11,25,00,39,2.90
2008,11,25,00,40,2.80
2008,11,25,00,41,2.80
2008,11,25,00,42,2.80
2008,11,25,00,43,2.80
2008,11,25,00,44,2.70
2008,11,25,00,45,2.70
2008,11,25,00,46,2.70
2008,11,25,00,47,2.70
2008,11,25,00,48,2.70
2008,11,25,00,49,2.70
2008,11,25,00,50,2.70
2008,11,25,00,51,2.60
2008,11,25,00,52,2.60
2008,11,25,00,53,2.60
2008,11,25,00,54,2.60
2008,11,25,00,55,2.60
2008,11,25,00,56,2.60
2008,11,25,00,57,2.60
2008,11,25,00,58,2.60
2008,11,25,00,59,2.60
2008,11,25,01,00,2.60
2008,11,25,01,01,2.60
2008,11,25,01,02,2.50
2008,11,25,01,03,2.50
2008,11,25,01,04,2.50
2008,11,25,01,05,2.50
2008,11,25,01,06,2.50
2008,11,25,01,07,2.50
2008,11,25,01,08,2.50
2008,11,25,01,09,2.50
2008,11,25,01,10,2.50
2008,11,25,01,11,2.40
2008,11,25,01,12,2.40
2008,11,25,01,13,2.40
2008,11,25,01,14,2.40
2008,11,25,01,15,2.40
2008,11,25,01,16,2.40
2008,11,25,01,17,2.40
2008,11,25,01,18,2.40
2008,11,25,01,19,2.40
2008,11,25,01,20,2.40
2008,11,25,01,21,2.30
2008,11,25,01,22,2.30
2008,11,25,01,23,2.30
2008,11,25,01,24,2.30
2008,11,25,01,25,2.30
2008,11,25,01,26,2.30
2008,11,25,01,27,2.30
2008,11,25,01,28,2.20
2008,11,25,01,29,2.20
2008,11,25,01,30,2.20
2008,11,25,01,31,2.20
2008,11,25,01,32,2.30
2008,11,25,01,33,2.30
2008,11,25,01,34,2.30
2008,11,25,01,35,2.30
2008,11,25,01,36,2.30
2008,11,25,01,37,2.30
2008,11,25,01,38,2.40
2008,11,25,01,39,2.40
2008,11,25,01,40,2.40
2008,11,25,01,41,2.40
2008,11,25,01,42,2.50
2008,11,25,01,43,2.50
2008,11,25,01,44,2.60
2008,11,25,01,45,2.70
2008,11,25,01,46,2.70
2008,11,25,01,47,2.80
2008,11,25,01,48,2.80
2008,11,25,01,49,2.90
2008,11,25,01,50,2.90
2008,11,25,01,51,2.90
2008,11,25,01,52,3.00
2008,11,25,01,53,3.10
2008,11,25,01,54,3.10
2008,11,25,01,55,3.10
2008,11,25,01,56,3.10
2008,11,25,01,57,3.10
2008,11,25,01,58,3.10
2008,11,25,01,59,3.10
2008,11,25,02,00,3.10
2008,11,25,02,01,3.10
2008,11,25,02,02,3.00
2008,11,25,02,03,2.90
2008,11,25,02,04,2.90
2008,11,25,02,05,2.90
2008,11,25,02,06,2.90
2008,11,25,02,07,2.90
2008,11,25,02,08,2.90
2008,11,25,02,09,2.90
2008,11,25,02,10,2.90
2008,11,25,02,11,2.90
2008,11,25,02,12,2.90
2008,11,25,02,13,2.90
2008,11,25,02,14,2.90
2008,11,25,02,15,2.90
2008,11,25,02,16,2.90
2008,11,25,02,17,2.90
2008,11,25,02,18,2.90
2008,11,25,02,19,2.80
2008,11,25,02,20,2.80
2008,11,25,02,21,2.80
2008,11,25,02,22,2.70
2008,11,25,02,23,2.70
2008,11,25,02,24,2.70
2008,11,25,02,25,2.70
2008,11,25,02,26,2.70
2008,11,25,02,27,2.70
2008,11,25,02,28,2.60
2008,11,25,02,29,2.60
2008,11,25,02,30,2.60
2008,11,25,02,31,2.60
2008,11,25,02,32,2.60
2008,11,25,02,33,2.60
2008,11,25,02,34,2.50
2008,11,25,02,35,2.50
2008,11,25,02,36,2.50
2008,11,25,02,37,2.50
2008,11,25,02,38,2.50
2008,11,25,02,39,2.50
2008,11,25,02,40,2.40
2008,11,25,02,41,2.40
2008,11,25,02,42,2.40
2008,11,25,02,43,2.40
2008,11,25,02,44,2.40
2008,11,25,02,45,2.40
2008,11,25,02,46,2.40
2008,11,25,02,47,2.40
2008,11,25,02,48,2.40
2008,11,25,02,49,2.40
2008,11,25,02,50,2.40
2008,11,25,02,51,2.40
2008,11,25,02,52,2.40
2008,11,25,02,53,2.40
2008,11,25,02,54,2.40
2008,11,25,02,55,2.40
2008,11,25,02,56,2.40
2008,11,25,02,57,2.40
2008,11,25,02,58,2.50
2008,11,25,02,59,2.50
2008,11,25,03,00,2.50
2008,11,25,03,01,2.60
2008,11,25,03,02,2.60
2008,11,25,03,03,2.60
2008,11,25,03,04,2.70
2008,11,25,03,05,2.70
2008,11,25,03,06,2.70
2008,11,25,03,07,2.80
2008,11,25,03,08,2.90
2008,11,25,03,09,2.90
2008,11,25,03,10,3.00
2008,11,25,03,11,3.10
2008,11,25,03,12,3.20
2008,11,25,03,13,3.30
2008,11,25,03,14,3.30
2008,11,25,03,15,3.40
2008,11,25,03,16,3.40
2008,11,25,03,17,3.40
2008,11,25,03,18,3.50
2008,11,25,03,19,3.50
2008,11,25,03,20,3.50
2008,11,25,03,21,3.50
2008,11,25,03,22,3.50
2008,11,25,03,23,3.50
2008,11,25,03,24,3.50
2008,11,25,03,25,3.40
2008,11,25,03,26,3.40
2008,11,25,03,27,3.40
2008,11,25,03,28,3.40
2008,11,25,03,29,3.30
2008,11,25,03,30,3.20
2008,11,25,03,31,3.20
2008,11,25,03,32,3.10
2008,11,25,03,33,3.10
2008,11,25,03,34,3.10
2008,11,25,03,35,3.10
2008,11,25,03,36,3.10
2008,11,25,03,37,3.10
2008,11,25,03,38,3.10
2008,11,25,03,39,3.10
2008,11,25,03,40,3.10
2008,11,25,03,41,3.10
2008,11,25,03,42,3.10
2008,11,25,03,43,3.10
2008,11,25,03,44,3.20
2008,11,25,03,45,3.20
2008,11,25,03,46,3.30
2008,11,25,03,47,3.30
2008,11,25,03,48,3.30
2008,11,25,03,49,3.30
2008,11,25,03,50,3.30
2008,11,25,03,51,3.30
2008,11,25,03,52,3.30
2008,11,25,03,53,3.30
2008,11,25,03,54,3.30
2008,11,25,03,55,3.30
2008,11,25,03,56,3.30
2008,11,25,03,57,3.30
2008,11,25,03,58,3.30
2008,11,25,03,59,3.30
2008,11,25,04,00,3.30
2008,11,25,04,01,3.30
2008,11,25,04,02,3.30
2008,11,25,04,03,3.50
2008,11,25,04,04,3.60
2008,11,25,04,05,3.80
2008,11,25,04,06,3.90
2008,11,25,04,07,4.10
2008,11,25,04,08,4.20
2008,11,25,04,09,4.40
2008,11,25,04,10,4.50
2008,11,25,04,11,4.50
2008,11,25,04,12,4.50
2008,11,25,04,13,4.50
2008,11,25,04,14,4.50
2008,11,25,04,15,4.50
2008,11,25,04,16,4.40
2008,11,25,04,17,4.40
2008,11,25,04,18,4.30
2008,11,25,04,19,4.20
2008,11,25,04,20,4.20
2008,11,25,04,21,4.10
2008,11,25,04,22,4.00
2008,11,25,04,23,4.00
2008,11,25,04,24,3.90
2008,11,25,04,25,3.80
2008,11,25,04,26,3.80
2008,11,25,04,27,3.70
2008,11,25,04,28,3.70
2008,11,25,04,29,3.70
2008,11,25,04,30,3.70
2008,11,25,04,31,3.70
2008,11,25,04,32,3.70
2008,11,25,04,33,3.70
2008,11,25,04,34,3.70
2008,11,25,04,35,3.60
2008,11,25,04,36,3.60
2008,11,25,04,37,3.60
2008,11,25,04,38,3.60
2008,11,25,04,39,3.50
2008,11,25,04,40,3.50
2008,11,25,04,41,3.50
2008,11,25,04,42,3.50
2008,11,25,04,43,3.50
2008,11,25,04,44,3.50
2008,11,25,04,45,3.40
2008,11,25,04,46,3.40
2008,11,25,04,47,3.40
2008,11,25,04,48,3.40
2008,11,25,04,49,3.40
2008,11,25,04,50,3.40
2008,11,25,04,51,3.40
2008,11,25,04,52,3.40
2008,11,25,04,53,3.40
2008,11,25,04,54,3.30
2008,11,25,04,55,3.30
2008,11,25,04,56,3.30
2008,11,25,04,57,3.30
2008,11,25,04,58,3.30
2008,11,25,04,59,3.30
2008,11,25,05,00,3.20
2008,11,25,05,01,3.20
2008,11,25,05,02,3.20
2008,11,25,05,03,3.20
2008,11,25,05,04,3.20
2008,11,25,05,05,3.20
2008,11,25,05,06,3.20
2008,11,25,05,07,3.30
2008,11,25,05,08,3.30
2008,11,25,05,09,3.30
2008,11,25,05,10,3.30
2008,11,25,05,11,3.30
2008,11,25,05,12,3.30
2008,11,25,05,13,3.30
2008,11,25,05,14,3.30
2008,11,25,05,15,3.20
2008,11,25,05,16,3.20
2008,11,25,05,17,3.10
2008,11,25,05,18,3.10
2008,11,25,05,19,3.10
2008,11,25,05,20,3.10
2008,11,25,05,21,3.10
2008,11,25,05,22,2.90
2008,11,25,05,23,2.90
2008,11,25,05,24,2.90
2008,11,25,05,25,2.90
2008,11,25,05,26,2.90
2008,11,25,05,27,2.90
2008,11,25,05,28,2.90
2008,11,25,05,29,3.00
2008,11,25,05,30,3.10
2008,11,25,05,31,3.10
2008,11,25,05,32,3.10
2008,11,25,05,33,3.10
2008,11,25,05,34,3.10
2008,11,25,05,35,3.10
2008,11,25,05,36,3.10
2008,11,25,05,37,3.10
2008,11,25,05,38,3.10
2008,11,25,05,39,3.10
2008,11,25,05,40,3.10
2008,11,25,05,41,3.10
2008,11,25,05,42,3.10
2008,11,25,05,43,3.10
2008,11,25,05,44,3.10
2008,11,25,05,45,3.10
2008,11,25,05,46,3.10
2008,11,25,05,47,3.10
2008,11,25,05,48,3.10
2008,11,25,05,49,3.10
2008,11,25,05,50,3.10
2008,11,25,05,51,3.10
2008,11,25,05,52,3.10
2008,11,25,05,53,3.10
2008,11,25,05,54,3.10
2008,11,25,05,55,3.10
2008,11,25,05,56,3.10
2008,11,25,05,57,3.10
2008,11,25,05,58,3.10
2008,11,25,05,59,3.20
2008,11,25,06,00,3.20
2008,11,25,06,01,3.20
2008,11,25,06,02,3.30
2008,11,25,06,03,3.30
2008,11,25,06,04,3.30
2008,11,25,06,05,3.30
2008,11,25,06,06,3.30
2008,11,25,06,07,3.30
2008,11,25,06,08,3.40
2008,11,25,06,09,3.40
2008,11,25,06,10,3.40
2008,11,25,06,11,3.40
2008,11,25,06,12,3.40
2008,11,25,06,13,3.40
2008,11,25,06,14,3.40
2008,11,25,06,15,3.50
2008,11,25,06,16,3.50
2008,11,25,06,17,3.50
2008,11,25,06,18,3.50
2008,11,25,06,19,3.50
2008,11,25,06,20,3.50
2008,11,25,06,21,3.60
2008,11,25,06,22,3.60
2008,11,25,06,23,3.60
2008,11,25,06,24,3.60
2008,11,25,06,25,3.60
2008,11,25,06,26,3.60
2008,11,25,06,27,3.60
2008,11,25,06,28,3.60
2008,11,25,06,29,3.60
2008,11,25,06,30,3.60
2008,11,25,06,31,3.60
2008,11,25,06,32,3.60
2008,11,25,06,33,3.60
2008,11,25,06,34,3.60
2008,11,25,06,35,3.60
2008,11,25,06,36,3.60
2008,11,25,06,37,3.70
2008,11,25,06,38,3.70
2008,11,25,06,39,3.70
2008,11,25,06,40,3.70
2008,11,25,06,41,3.70
2008,11,25,06,42,3.70
2008,11,25,06,43,3.70
2008,11,25,06,44,3.70
2008,11,25,06,45,3.70
2008,11,25,06,46,3.70
2008,11,25,06,47,3.70
2008,11,25,06,48,3.80
2008,11,25,06,49,3.80
2008,11,25,06,50,3.80
2008,11,25,06,51,3.80
2008,11,25,06,52,3.80
2008,11,25,06,53,3.80
2008,11,25,06,54,3.80
2008,11,25,06,55,3.90
2008,11,25,06,56,3.90
2008,11,25,06,57,3.90
2008,11,25,06,58,4.00
2008,11,25,06,59,4.00
2008,11,25,07,00,4.00
2008,11,25,07,01,4.10
2008,11,25,07,02,4.10
2008,11,25,07,03,4.20
2008,11,25,07,04,4.20
2008,11,25,07,05,4.20
2008,11,25,07,06,4.20
2008,11,25,07,07,4.10
2008,11,25,07,08,4.10
2008,11,25,07,09,4.10
2008,11,25,07,10,4.10
2008,11,25,07,11,4.10
2008,11,25,07,12,4.10
2008,11,25,07,13,4.10
2008,11,25,07,14,4.10
2008,11,25,07,15,4.10
2008,11,25,07,16,4.10
2008,11,25,07,17,4.10
2008,11,25,07,18,4.10
2008,11,25,07,19,4.20
2008,11,25,07,20,4.20
2008,11,25,07,21,4.20
2008,11,25,07,22,4.20
2008,11,25,07,23,4.20
2008,11,25,07,24,4.30
2008,11,25,07,25,4.30
2008,11,25,07,26,4.40
2008,11,25,07,27,4.40
2008,11,25,07,28,4.60
2008,11,25,07,29,4.80
2008,11,25,07,30,5.10
2008,11,25,07,31,5.20
2008,11,25,07,32,5.40
2008,11,25,07,33,5.60
2008,11,25,07,34,5.70
2008,11,25,07,35,5.70
2008,11,25,07,36,5.80
2008,11,25,07,37,5.90
2008,11,25,07,38,5.90
2008,11,25,07,39,6.00
2008,11,25,07,40,6.00
2008,11,25,07,41,5.90
2008,11,25,07,42,6.00
2008,11,25,07,43,6.00
2008,11,25,07,44,6.00
2008,11,25,07,45,6.00
2008,11,25,07,46,6.00
2008,11,25,07,47,6.00
2008,11,25,07,48,6.00
2008,11,25,07,49,6.00
2008,11,25,07,50,6.00
2008,11,25,07,51,6.00
2008,11,25,07,52,6.00
2008,11,25,07,53,6.00
2008,11,25,07,54,6.00
2008,11,25,07,55,6.00
2008,11,25,07,56,6.00
2008,11,25,07,57,6.00
2008,11,25,07,58,6.00
2008,11,25,07,59,6.00
2008,11,25,08,00,6.00
2008,11,25,08,01,6.00
2008,11,25,08,02,6.00
2008,11,25,08,03,6.00
2008,11,25,08,04,6.00
2008,11,25,08,05,6.00
2008,11,25,08,06,6.00
2008,11,25,08,07,6.00
2008,11,25,08,08,6.00
2008,11,25,08,09,6.10
2008,11,25,08,10,6.10
2008,11,25,08,11,6.20
2008,11,25,08,12,6.20
2008,11,25,08,13,6.20
2008,11,25,08,14,6.20
2008,11,25,08,15,6.20
2008,11,25,08,16,6.10
2008,11,25,08,17,6.10
2008,11,25,08,18,6.10
2008,11,25,08,19,6.20
2008,11,25,08,20,6.20
2008,11,25,08,21,6.20
2008,11,25,08,22,6.20
2008,11,25,08,23,6.20
2008,11,25,08,24,6.20
2008,11,25,08,25,6.20
2008,11,25,08,26,6.20
2008,11,25,08,27,6.20
2008,11,25,08,28,6.20
2008,11,25,08,29,6.20
2008,11,25,08,30,6.20
2008,11,25,08,31,6.20
2008,11,25,08,32,6.20
2008,11,25,08,33,6.20
2008,11,25,08,34,6.20
2008,11,25,08,35,6.20
2008,11,25,08,36,6.20
2008,11,25,08,37,6.20
2008,11,25,08,38,6.20
2008,11,25,08,39,6.20
2008,11,25,08,40,6.20
2008,11,25,08,41,6.20
2008,11,25,08,42,6.20
2008,11,25,08,43,6.30
2008,11,25,08,44,6.30
2008,11,25,08,45,6.40
2008,11,25,08,46,6.40
2008,11,25,08,47,6.40
2008,11,25,08,48,6.40
2008,11,25,08,49,6.40
2008,11,25,08,50,6.50
2008,11,25,08,51,6.60
2008,11,25,08,52,6.60
2008,11,25,08,53,6.60
2008,11,25,08,54,6.60
2008,11,25,08,55,6.60
2008,11,25,08,56,6.60
2008,11,25,08,57,6.60
2008,11,25,08,58,6.60
2008,11,25,08,59,6.60
2008,11,25,09,00,6.60
2008,11,25,09,01,6.60
2008,11,25,09,02,6.60
2008,11,25,09,03,6.60
2008,11,25,09,04,6.60
2008,11,25,09,05,6.60
2008,11,25,09,06,6.50
2008,11,25,09,07,6.60
2008,11,25,09,08,6.60
2008,11,25,09,09,6.60
2008,11,25,09,10,6.60
2008,11,25,09,11,6.60
2008,11,25,09,12,6.60
2008,11,25,09,13,6.60
2008,11,25,09,14,6.60
2008,11,25,09,15,6.60
2008,11,25,09,16,6.60
2008,11,25,09,17,6.60
2008,11,25,09,18,6.60
2008,11,25,09,19,6.60
2008,11,25,09,20,6.60
2008,11,25,09,21,6.60
2008,11,25,09,22,6.60
2008,11,25,09,23,6.60
2008,11,25,09,24,6.70
2008,11,25,09,25,6.70
2008,11,25,09,26,6.70
2008,11,25,09,27,6.70
2008,11,25,09,28,6.80
2008,11,25,09,29,6.80
2008,11,25,09,30,6.80
2008,11,25,09,31,6.80
2008,11,25,09,32,6.80
2008,11,25,09,33,6.80
2008,11,25,09,34,6.80
2008,11,25,09,35,6.80
2008,11,25,09,36,6.80
2008,11,25,09,37,6.80
2008,11,25,09,38,6.80
2008,11,25,09,39,6.80
2008,11,25,09,40,6.90
2008,11,25,09,41,6.90
2008,11,25,09,42,6.90
2008,11,25,09,43,6.90
2008,11,25,09,44,7.00
2008,11,25,09,45,7.00
2008,11,25,09,46,7.00
2008,11,25,09,47,7.00
2008,11,25,09,48,7.00
2008,11,25,09,49,7.00
2008,11,25,09,50,7.10
2008,11,25,09,51,7.10
2008,11,25,09,52,7.10
2008,11,25,09,53,7.10
2008,11,25,09,54,7.20
2008,11,25,09,55,7.20
2008,11,25,09,56,7.20
2008,11,25,09,57,7.20
2008,11,25,09,58,7.20
2008,11,25,09,59,7.20
2008,11,25,10,00,7.30
2008,11,25,10,01,7.30
2008,11,25,10,02,7.30
2008,11,25,10,03,7.30
2008,11,25,10,04,7.30
2008,11,25,10,05,7.30
2008,11,25,10,06,7.30
2008,11,25,10,07,7.30
2008,11,25,10,08,7.30
2008,11,25,10,09,7.40
2008,11,25,10,10,7.40
2008,11,25,10,11,7.40
2008,11,25,10,12,7.40
2008,11,25,10,13,7.40
2008,11,25,10,14,7.50
2008,11,25,10,15,7.50
2008,11,25,10,16,7.50
2008,11,25,10,17,7.50
2008,11,25,10,18,7.60
2008,11,25,10,19,7.60
2008,11,25,10,20,7.60
2008,11,25,10,21,7.70
2008,11,25,10,22,7.70
2008,11,25,10,23,7.70
2008,11,25,10,24,7.80
2008,11,25,10,25,7.80
2008,11,25,10,26,7.80
2008,11,25,10,27,7.80
2008,11,25,10,28,7.90
2008,11,25,10,29,8.00
2008,11,25,10,30,8.00
2008,11,25,10,31,8.00
2008,11,25,10,32,8.10
2008,11,25,10,33,8.10
2008,11,25,10,34,8.20
2008,11,25,10,35,8.20
2008,11,25,10,36,8.20
2008,11,25,10,37,8.20
2008,11,25,10,38,8.20
2008,11,25,10,39,8.20
2008,11,25,10,40,8.20
2008,11,25,10,41,8.20
2008,11,25,10,42,8.20
2008,11,25,10,43,8.20
2008,11,25,10,44,8.20
2008,11,25,10,45,8.20
2008,11,25,10,46,8.20
2008,11,25,10,47,8.20
2008,11,25,10,48,8.20
2008,11,25,10,49,8.20
2008,11,25,10,50,8.20
2008,11,25,10,51,8.30
2008,11,25,10,52,8.30
2008,11,25,10,53,8.30
2008,11,25,10,54,8.30
2008,11,25,10,55,8.40
2008,11,25,10,56,8.40
2008,11,25,10,57,8.40
2008,11,25,10,58,8.50
2008,11,25,10,59,8.50
2008,11,25,11,00,8.60
2008,11,25,11,01,8.60
2008,11,25,11,02,8.70
2008,11,25,11,03,8.70
2008,11,25,11,04,8.70
2008,11,25,11,05,8.70
2008,11,25,11,06,8.70
2008,11,25,11,07,8.80
2008,11,25,11,08,8.80
2008,11,25,11,09,8.90
2008,11,25,11,10,8.90
2008,11,25,11,11,8.90
2008,11,25,11,12,9.00
2008,11,25,11,13,9.00
2008,11,25,11,14,9.10
2008,11,25,11,15,9.10
2008,11,25,11,16,9.20
2008,11,25,11,17,9.20
2008,11,25,11,18,9.20
2008,11,25,11,19,9.20
2008,11,25,11,20,9.20
2008,11,25,11,21,9.20
2008,11,25,11,22,9.20
2008,11,25,11,23,9.20
2008,11,25,11,24,9.30
2008,11,25,11,25,9.30
2008,11,25,11,26,9.30
2008,11,25,11,27,9.30
2008,11,25,11,28,9.30
2008,11,25,11,29,9.30
2008,11,25,11,30,9.30
2008,11,25,11,31,9.30
2008,11,25,11,32,9.30
2008,11,25,11,33,9.40
2008,11,25,11,34,9.40
2008,11,25,11,35,9.40
2008,11,25,11,36,9.40
2008,11,25,11,37,9.40
2008,11,25,11,38,9.40
2008,11,25,11,39,9.40
2008,11,25,11,40,9.40
2008,11,25,11,41,9.40
2008,11,25,11,42,9.40
2008,11,25,11,43,9.40
2008,11,25,11,44,9.40
2008,11,25,11,45,9.40
2008,11,25,11,46,9.40
2008,11,25,11,47,9.40
2008,11,25,11,48,9.40
2008,11,25,11,49,9.40
2008,11,25,11,50,9.40
2008,11,25,11,51,9.40
2008,11,25,11,52,9.40
2008,11,25,11,53,9.40
2008,11,25,11,54,9.40
2008,11,25,11,55,9.40
2008,11,25,11,56,9.40
2008,11,25,11,57,9.50
2008,11,25,11,58,9.50
2008,11,25,11,59,9.50
2008,11,25,12,00,9.50
2008,11,25,12,01,9.50
2008,11,25,12,02,9.50
2008,11,25,12,03,9.50
2008,11,25,12,04,9.50
2008,11,25,12,05,9.50
2008,11,25,12,06,9.50
2008,11,25,12,07,9.60
2008,11,25,12,08,9.60
2008,11,25,12,09,9.60
2008,11,25,12,10,9.60
2008,11,25,12,11,9.50
2008,11,25,12,12,9.50
2008,11,25,12,13,9.60
2008,11,25,12,14,9.60
2008,11,25,12,15,9.60
2008,11,25,12,16,9.60
2008,11,25,12,17,9.60
2008,11,25,12,18,9.60
2008,11,25,12,19,9.60
2008,11,25,12,20,9.70
2008,11,25,12,21,9.70
2008,11,25,12,22,9.70
2008,11,25,12,23,9.70
2008,11,25,12,24,9.70
2008,11,25,12,25,9.70
2008,11,25,12,26,9.80
2008,11,25,12,27,9.90
2008,11,25,12,28,9.90
2008,11,25,12,29,9.90
2008,11,25,12,30,9.90
2008,11,25,12,31,9.90
2008,11,25,12,32,10.00
2008,11,25,12,33,10.10
2008,11,25,12,34,10.10
2008,11,25,12,35,10.10
2008,11,25,12,36,10.10
2008,11,25,12,37,10.10
2008,11,25,12,38,10.10
2008,11,25,12,39,10.10
2008,11,25,12,40,10.10
2008,11,25,12,41,10.10
2008,11,25,12,42,10.10
2008,11,25,12,43,10.10
2008,11,25,12,44,10.20
2008,11,25,12,45,10.30
2008,11,25,12,46,10.30
2008,11,25,12,47,10.40
2008,11,25,12,48,10.40
2008,11,25,12,49,10.50
2008,11,25,12,50,10.60
2008,11,25,12,51,10.60
2008,11,25,12,52,10.60
2008,11,25,12,53,10.60
2008,11,25,12,54,10.60
2008,11,25,12,55,10.60
2008,11,25,12,56,10.70
2008,11,25,12,57,10.60
2008,11,25,12,58,10.70
2008,11,25,12,59,10.70
2008,11,25,13,00,10.70
2008,11,25,13,01,10.70
2008,11,25,13,02,10.70
2008,11,25,13,03,10.70
2008,11,25,13,04,10.70
2008,11,25,13,05,10.60
2008,11,25,13,06,10.60
2008,11,25,13,07,10.60
2008,11,25,13,08,10.60
2008,11,25,13,09,10.60
2008,11,25,13,10,10.60
2008,11,25,13,11,10.60
2008,11,25,13,12,10.60
2008,11,25,13,13,10.60
2008,11,25,13,14,10.60
2008,11,25,13,15,10.60
2008,11,25,13,16,10.70
2008,11,25,13,17,10.70
2008,11,25,13,18,10.70
2008,11,25,13,19,10.80
2008,11,25,13,20,10.80
2008,11,25,13,21,10.90
2008,11,25,13,22,10.90
2008,11,25,13,23,10.90
2008,11,25,13,24,10.90
2008,11,25,13,25,10.90
2008,11,25,13,26,10.90
2008,11,25,13,27,10.90
2008,11,25,13,28,10.90
2008,11,25,13,29,10.90
2008,11,25,13,30,10.90
2008,11,25,13,31,10.90
2008,11,25,13,32,10.90
2008,11,25,13,33,10.90
2008,11,25,13,34,10.90
2008,11,25,13,35,10.90
2008,11,25,13,36,10.80
2008,11,25,13,37,10.80
2008,11,25,13,38,10.80
2008,11,25,13,39,10.80
2008,11,25,13,40,10.80
2008,11,25,13,41,10.70
2008,11,25,13,42,10.70
2008,11,25,13,43,10.60
2008,11,25,13,44,10.70
2008,11,25,13,45,10.70
2008,11,25,13,46,10.60
2008,11,25,13,47,10.60
2008,11,25,13,48,10.60
2008,11,25,13,49,10.60
2008,11,25,13,50,10.60
2008,11,25,13,51,10.60
2008,11,25,13,52,10.60
2008,11,25,13,53,10.60
2008,11,25,13,54,10.60
2008,11,25,13,55,10.60
2008,11,25,13,56,10.60
2008,11,25,13,57,10.60
2008,11,25,13,58,10.60
2008,11,25,13,59,10.60
2008,11,25,14,00,10.60
2008,11,25,14,01,10.60
2008,11,25,14,02,10.60
2008,11,25,14,03,10.60
2008,11,25,14,04,10.50
2008,11,25,14,05,10.40
2008,11,25,14,06,10.40
2008,11,25,14,07,10.40
2008,11,25,14,08,10.30
2008,11,25,14,09,10.30
2008,11,25,14,10,10.20
2008,11,25,14,11,10.20
2008,11,25,14,12,10.20
2008,11,25,14,13,10.10
2008,11,25,14,14,10.10
2008,11,25,14,15,10.10
2008,11,25,14,16,10.10
2008,11,25,14,17,10.10
2008,11,25,14,18,10.10
2008,11,25,14,19,10.10
2008,11,25,14,20,10.00
2008,11,25,14,21,9.90
2008,11,25,14,22,10.10
2008,11,25,14,23,10.10
2008,11,25,14,24,10.10
2008,11,25,14,25,10.10
2008,11,25,14,26,10.10
2008,11,25,14,27,10.10
2008,11,25,14,28,10.10
2008,11,25,14,29,10.10
2008,11,25,14,30,10.10
2008,11,25,14,31,10.00
2008,11,25,14,32,9.90
2008,11,25,14,33,9.90
2008,11,25,14,34,9.90
2008,11,25,14,35,9.90
2008,11,25,14,36,9.80
2008,11,25,14,37,9.80
2008,11,25,14,38,9.80
2008,11,25,14,39,9.70
2008,11,25,14,40,9.70
2008,11,25,14,41,9.70
2008,11,25,14,42,9.70
2008,11,25,14,43,9.70
2008,11,25,14,44,9.70
2008,11,25,14,45,9.70
2008,11,25,14,46,9.70
2008,11,25,14,47,9.70
2008,11,25,14,48,9.70
2008,11,25,14,49,9.70
2008,11,25,14,50,9.70
2008,11,25,14,51,9.60
2008,11,25,14,52,9.60
2008,11,25,14,53,9.60
2008,11,25,14,54,9.60
2008,11,25,14,55,9.60
2008,11,25,14,56,9.60
2008,11,25,14,57,9.60
2008,11,25,14,58,9.60
2008,11,25,14,59,9.60
2008,11,25,15,00,9.60
2008,11,25,15,01,9.60
2008,11,25,15,02,9.60
2008,11,25,15,03,9.60
2008,11,25,15,04,9.60
2008,11,25,15,05,9.70
2008,11,25,15,06,9.60
2008,11,25,15,07,9.60
2008,11,25,15,08,9.60
2008,11,25,15,09,9.60
2008,11,25,15,10,9.60
2008,11,25,15,11,9.60
2008,11,25,15,12,9.60
2008,11,25,15,13,9.60
2008,11,25,15,14,9.60
2008,11,25,15,15,9.60
2008,11,25,15,16,9.60
2008,11,25,15,17,9.60
2008,11,25,15,18,9.60
2008,11,25,15,19,9.60
2008,11,25,15,20,9.60
2008,11,25,15,21,9.60
2008,11,25,15,22,9.60
2008,11,25,15,23,9.60
2008,11,25,15,24,9.60
2008,11,25,15,25,9.70
2008,11,25,15,26,9.70
2008,11,25,15,27,9.70
2008,11,25,15,28,9.70
2008,11,25,15,29,9.60
2008,11,25,15,30,9.60
2008,11,25,15,31,9.60
2008,11,25,15,32,9.60
2008,11,25,15,33,9.60
2008,11,25,15,34,9.50
2008,11,25,15,35,9.50
2008,11,25,15,36,9.50
2008,11,25,15,37,9.40
2008,11,25,15,38,9.40
2008,11,25,15,39,9.40
2008,11,25,15,40,9.30
2008,11,25,15,41,9.30
2008,11,25,15,42,9.30
2008,11,25,15,43,9.20
2008,11,25,15,44,9.20
2008,11,25,15,45,9.20
2008,11,25,15,46,9.20
2008,11,25,15,47,9.20
2008,11,25,15,48,9.20
2008,11,25,15,49,9.20
2008,11,25,15,50,9.20
2008,11,25,15,51,9.10
2008,11,25,15,52,9.10
2008,11,25,15,53,9.10
2008,11,25,15,54,9.10
2008,11,25,15,55,9.10
2008,11,25,15,56,9.10
2008,11,25,15,57,9.00
2008,11,25,15,58,9.00
2008,11,25,15,59,9.00
2008,11,25,16,00,9.00
2008,11,25,16,01,8.90
2008,11,25,16,02,8.90
2008,11,25,16,03,8.90
2008,11,25,16,04,8.80
2008,11,25,16,05,8.80
2008,11,25,16,06,8.80
2008,11,25,16,07,8.70
2008,11,25,16,08,8.70
2008,11,25,16,09,8.70
2008,11,25,16,10,8.70
2008,11,25,16,11,8.70
2008,11,25,16,12,8.70
2008,11,25,16,13,8.60
2008,11,25,16,14,8.60
2008,11,25,16,15,8.60
2008,11,25,16,16,8.60
2008,11,25,16,17,8.50
2008,11,25,16,18,8.50
2008,11,25,16,19,8.50
2008,11,25,16,20,8.50
2008,11,25,16,21,8.50
2008,11,25,16,22,8.40
2008,11,25,16,23,8.40
2008,11,25,16,24,8.40
2008,11,25,16,25,8.40
2008,11,25,16,26,8.40
2008,11,25,16,27,8.40
2008,11,25,16,28,8.40
2008,11,25,16,29,8.40
2008,11,25,16,30,8.40
2008,11,25,16,31,8.30
2008,11,25,16,32,8.30
2008,11,25,16,33,8.30
2008,11,25,16,34,8.30
2008,11,25,16,35,8.30
2008,11,25,16,36,8.30
2008,11,25,16,37,8.30
2008,11,25,16,38,8.30
2008,11,25,16,39,8.30
2008,11,25,16,40,8.30
2008,11,25,16,41,8.30
2008,11,25,16,42,8.30
2008,11,25,16,43,8.30
2008,11,25,16,44,8.20
2008,11,25,16,45,8.20
2008,11,25,16,46,8.20
2008,11,25,16,47,8.20
2008,11,25,16,48,8.20
2008,11,25,16,49,8.20
2008,11,25,16,50,8.20
2008,11,25,16,51,8.20
2008,11,25,16,52,8.20
2008,11,25,16,53,8.20
2008,11,25,16,54,8.20
2008,11,25,16,55,8.20
2008,11,25,16,56,8.10
2008,11,25,16,57,8.10
2008,11,25,16,58,8.10
2008,11,25,16,59,8.10
2008,11,25,17,00,8.10
2008,11,25,17,01,8.10
2008,11,25,17,02,8.10
2008,11,25,17,03,8.10
2008,11,25,17,04,8.10
2008,11,25,17,05,8.00
2008,11,25,17,06,8.00
2008,11,25,17,07,8.00
2008,11,25,17,08,8.00
2008,11,25,17,09,8.00
2008,11,25,17,10,8.00
2008,11,25,17,11,8.00
2008,11,25,17,12,8.00
2008,11,25,17,13,8.00
2008,11,25,17,14,8.00
2008,11,25,17,15,7.90
2008,11,25,17,16,7.90
2008,11,25,17,17,7.90
2008,11,25,17,18,7.90
2008,11,25,17,19,7.90
2008,11,25,17,20,7.90
2008,11,25,17,21,7.90
2008,11,25,17,22,7.80
2008,11,25,17,23,7.80
2008,11,25,17,24,7.80
2008,11,25,17,25,7.80
2008,11,25,17,26,7.80
2008,11,25,17,27,7.80
2008,11,25,17,28,7.80
2008,11,25,17,29,7.80
2008,11,25,17,30,7.80
2008,11,25,17,31,7.70
2008,11,25,17,32,7.70
2008,11,25,17,33,7.70
2008,11,25,17,34,7.70
2008,11,25,17,35,7.60
2008,11,25,17,36,7.60
2008,11,25,17,37,7.60
2008,11,25,17,38,7.60
2008,11,25,17,39,7.50
2008,11,25,17,40,7.50
2008,11,25,17,41,7.50
2008,11,25,17,42,7.50
2008,11,25,17,43,7.50
2008,11,25,17,44,7.50
2008,11,25,17,45,7.40
2008,11,25,17,46,7.40
2008,11,25,17,47,7.40
2008,11,25,17,48,7.40
2008,11,25,17,49,7.40
2008,11,25,17,50,7.40
2008,11,25,17,51,7.30
2008,11,25,17,52,7.30
2008,11,25,17,53,7.30
2008,11,25,17,54,7.30
2008,11,25,17,55,7.30
2008,11,25,17,56,7.30
2008,11,25,17,57,7.30
2008,11,25,17,58,7.30
2008,11,25,17,59,7.30
2008,11,25,18,00,7.30
2008,11,25,18,01,7.30